Location: York
(31.8935°S, 116.7682°E)
Time: 02:58:55
(UTC+08:00)

DX 1 - Pass Details

Date: 29 July 2021
Orbit: 618 x 631 km, 98.4° (Epoch: 23 September)

Event Time Altitude Azimuth Distance (km) Brightness Sun altitude
Rises 19:54:02 0° 345° (NNW) 2,893 ? -29.4°
Reaches altitude 10° 19:56:35 10° 330° (NNW) 1,994 ? -30.0°
Maximum altitude 20:00:02 23° 277° (W) 1,337 ? -30.7°
Drops below altitude 10° 20:03:31 10° 224° (SW) 2,011 ? -31.4°
Sets 20:06:07 0° 209° (SSW) 2,925 ? -32.0°
